P/2003 O3 (LINEAR)                                                    

Epoch 2003 Aug. 29.0 TT = JDT 2452880.5  

T 2003 Aug. 14.06411 TT                                 Nakano

q   1.2463781            (2000.0)            P               Q

n   0.18017703     Peri.    0.76334     +0.95242558     +0.30125592

a   3.1045817      Node   341.50071     -0.28038740     +0.80676147

e   0.5985359      Incl.    8.36441     -0.11945051     +0.50831172

P   5.47 (+/- 0.02 day)

From 259 observations 2003 July 30-Dec. 15, mean residual 0".64.

Residuals in seconds of arc 

2003/                     030805 026  1.0+  0.7+    030905 H41  0.0   0.4+  

030730 704  0.1+  0.8-    030805 106 (3.3-  0.5+)   030905 H41  1.5+  1.0-  

030730 704  0.4+  0.5-    030805 620  1.1-  0.7+    030907 J95  0.3-  0.2-  

030730 704  0.9+  1.5-    030805 026  0.4+  0.1+    030907 J95  0.5+  0.1-  

030730 704  1.5+  0.7-    030805 106  0.1+  0.3+    030907 J95  0.6-  0.1+  

030730 704  1.3+  0.4-    030805 620  0.2+  0.4+    030908 785  0.6+  1.0+  

030731 J95  0.1-  1.0-    030805 106 (2.2+  0.5-)   030908 785 (0.7-  2.3+) 

030731 J95  0.0   0.9+    030805 941  0.5+  0.1-    030908 360  0.1+  0.5-  

030731 J95 (2.4-  1.9-)   030805 941  0.1-  0.5-    030908 360  0.0   0.4-  

030731 599  0.3+  0.2+    030805 941  0.4-  0.3-    030910 785  1.0-  0.5+  

030731 599  0.3+  0.4+    030805 941  0.9-  0.4-    030910 785  0.3-  0.8-  

030731 599  1.0+  0.2+    030805 651  0.3+  0.4+    030911 620  0.1-  0.4+  

030801 704  0.3+  0.3+    030805 651  0.2+  0.6+    030917 785 (2.5-  1.8+) 

030801 704  0.1-  1.2-    030805 651  0.0   0.0     030917 785  0.9+  1.0-  

030801 704  1.4+  0.1+    030805 651  0.5+  0.2-    030918 H41 (4.0-  1.3+) 

030801 704  0.6-  0.4+    030805 651  0.2+  0.0     030919 118  0.0   1.0+  

030801 704  0.9+  0.9-    030805 704  0.5+  0.0     030919 118  0.4-  0.5+  

030801 704  0.4-  0.3-    030805 704  0.2+  0.3-    030920 246  0.2+  0.3+  

030801 704 (3.0+  1.7+)   030805 704  0.5+  0.6-    030920 246  0.1-  0.0   

030801 704  0.4-  0.1-    030805 704  0.5-  0.4-    030920 246  0.2-  0.1-  

030801 704  1.4+  0.6-    030805 704  0.2+  0.3-    030920 246  0.3-  0.2+  

030801 A50  0.2-  0.8-    030805 474  0.2-  0.3-    030920 246  0.2-  0.0   

030801 A50  0.4-  0.7-    030805 474  0.2+  0.1+    030920 H41  0.5+  1.0-  

030801 A50  1.3-  0.7-    030805 474  0.2+  0.1-    030920 H41  0.4-  0.2+  

030801 A50  0.7-  0.8-    030806 026  0.5+  0.2-    030920 213  0.3-  0.2-  

030801 A50  0.6-  0.2+    030806 026  0.1-  0.1+    030920 213  0.2-  0.0   

030802 A50  1.0-  0.3-    030806 026  0.2+  0.0     030920 213  0.2-  0.2-  

030802 A50  0.5-  0.8-    030806 026  0.6+  0.4+    030920 130  0.4+  0.0   

030802 151  0.4+  0.2+    030807 213  1.3-  1.3-    030920 130  0.4+  0.1-  

030802 151  0.8-  0.8+    030807 213  0.7-  0.3-    030924 785  0.8-  1.1-  

030802 176  0.4-  0.2+    030808 850 (0.5-  3.7+)   030924 785  1.5-  0.6-  

030802 176  0.3-  0.2+    030808 850 (0.6-  3.0+)   030924 785 (2.4-  0.2+) 

030802 176  0.4-  0.2+    030809 H41  0.7+  0.6-    030925 H41  0.6+  0.3-  

030802 176  0.5-  0.2+    030809 H41  0.3+  0.6+    030925 H41  0.7-  0.5+  

030802 176  0.4-  0.2+    030809 H41 (2.4+  2.5-)   030925 H41  0.4+  0.3+  

030802 557  0.1+  0.2-    030812 204 (2.3+  1.2-)   030926 642  0.6+  0.5+  

030802 557  0.4-  0.3+    030812 204  1.8+  0.0     030926 642  0.1-  0.4+  

030802 557  0.4-  0.1+    030812 204  1.0+  0.4-    030926 642  0.8+  0.9+  

030802 J95  0.2+  1.0-    030812 204  0.6+  0.5-    030926 H41  0.6+  0.1-  

030802 J95  1.2+  0.4+    030812 204  0.6+  0.7-    030926 H41  0.9+  0.6-  

030802 J95  0.9+  0.2-    030813 620  0.2+  0.3-    030926 704  0.3-  0.2+  

030803 246  0.8-  0.1-    030813 620  0.3+  0.4+    030926 704  0.6-  0.7-  

030803 246  0.5-  0.2+    030813 620  0.2-  0.1-    030926 704  0.2-  0.1+  

030803 246  0.3-  0.1+    030819 785 (3.6-  5.5-)   030926 704  0.3+  0.2+  

030803 246  0.1-  0.4+    030819 785 (0.1+  5.8-)   030926 360  0.4+  0.0   

030803 246  0.1-  0.2+    030819 785 (2.8+  2.7-)   030926 360  0.3-  0.3+  

030803 246  0.1+  0.2-    030820 J95  0.3+  1.3-    030928 H44  0.5+  0.2-  

030803 026  1.3+  0.7+    030820 J95  0.4+  0.2-    030928 H44  0.7+  0.2+  

030803 026  0.7+  0.2+    030820 J95  0.5+  0.3-    030928 H41  0.9+  0.4-  

030803 026  0.0   0.1-    030820 213  0.6+  1.0+    030928 H41  0.4-  0.1+  

030803 118  1.0-  0.5+    030820 599  1.1-  0.3-    030929 785 (0.3-  2.3+) 

030803 J95  0.5+  0.3+    030820 599  0.6-  0.5+    030929 785  1.8-  1.1-  

030803 118  1.0-  0.7+    030820 599  0.5-  0.0     030929 785  1.3+  1.5-  

030803 J87  0.9-  0.3+    030820 859  0.2-  1.8+    030929 785 (2.0+  0.4+) 

030803 118  1.1-  1.0+    030820 859  1.8-  1.0-    031002 H41  0.1-  0.5-  

030803 J87  0.0   0.8+    030820 859  1.2+  0.5-    031002 H41 (0.5-  2.1-) 

030803 J87  0.1-  0.4+    030821 785 (2.1-  1.2+)   031003 785  0.9+  0.7-  

030803 J95  0.8+  0.1+    030821 785  1.1+  1.6+    031003 785 (2.3-  0.4-) 

030803 J87  1.9-  0.6+    030821 785 (0.5+  4.1+)   031005 213  0.6-  0.8+  

030803 J87  1.9-  0.5+    030824 859  0.7+  1.3+    031013 785  0.8-  0.3-  

030803 J87 (0.8-  3.1+)   030824 859 (2.1+  0.7+)   031015 H41  0.4+  0.3-  

030803 J95  0.6+  0.0     030824 859  0.1+  0.3-    031015 H41  0.4+  0.0   

030803 854  0.8+  0.3+    030824 704 (0.5+  3.2+)   031018 J95  0.1-  0.2-  

030803 854  0.4-  1.2-    030824 704 (2.5+  1.1+)   031018 J95  0.5-  0.4+  

030803 854  0.4-  0.4+    030824 704  0.3-  0.3+    031018 J95  1.6-  0.8-  

030803 671  0.2+  0.3+    030824 704 (0.6-  2.0+)   031018 H41  1.1+  0.8-  

030803 671  0.0   0.0     030824 704 (3.1-  0.4-)   031018 H41  0.1+  0.7-  

030803 671  0.5+  0.3-    030825 704  0.1+  0.7+    031019 H41  0.5-  0.6-  

030804 246  0.7-  0.4+    030825 704  0.1+  0.8-    031019 H41  0.5-  0.6+  

030804 246  0.2-  0.2-    030825 704  0.9-  0.7+    031019 360  0.1+  0.2+  

030804 246  0.0   0.0     030825 704  0.3-  0.2+    031019 360  0.1-  0.1+  

030804 246  0.3-  0.4+    030825 704  1.3-  0.5+    031022 H41  0.8+  0.4-  

030804 246  0.8-  0.1-    030826 118  0.4-  0.4+    031022 H41  1.0+  0.4-  

030804 246  0.2+  0.1-    030826 118  0.7-  0.0     031022 H41  0.4+  0.4-  

030804 246  0.4-  0.6-    030826 118  0.4-  0.0     031023 704  0.3-  0.4+  

030804 246  0.3-  0.3+    030826 850  1.0+  0.3+    031023 704  0.3+  1.5+  

030804 246  0.3-  0.4+    030826 850  1.1+  1.0+    031023 704  1.0-  0.4-  

030804 J95  0.2-  0.0     030826 850  1.2-  1.3-    031023 704  0.6+  0.8+  

030804 J95  0.3-  0.3+    030827 213 (2.2-  1.2-)   031104 461  0.2-  0.8+  

030804 J95  0.1-  0.5-    030827 213 (2.3-  0.8-)   031104 461  0.4-  0.3+  

030804 704  0.2+  0.0     030828 704 (0.3+  2.2+)   031104 461  1.6-  0.6+  

030804 704  0.8-  0.6-    030828 704  1.1+  1.2+    031116 360  0.4+  0.4+  

030804 704  0.3+  0.5+    030828 704  0.4+  0.5+    031116 360  0.6-  1.2+  

030804 704  0.1-  1.6+    030828 785  1.1-  0.9-    031116 360  0.2+  0.8+  

030804 704  1.1-  0.0     030828 704 (0.2-  2.2+)   031117 J95  0.8+  0.1+  

030804 704  0.4-  0.6+    030828 785 (2.6-  0.3-)   031117 J95  0.9-  0.5+  

030804 704  0.6+  0.5+    030828 785 (2.1-  0.4-)   031117 J95  0.2-  0.6+  

030804 704  0.0   0.9+    030830 J95  0.1-  0.6-    031120 704  0.9-  0.4+  

030804 704  0.2+  0.1+    030830 J95  0.2+  0.2-    031120 704 (0.5+  2.2-) 

030804 704  0.8+  0.4+    030830 J95  0.3+  0.1+    031120 704  0.9+  0.9-  

030805 557  0.6+  0.2+    030830 J95  0.4-  0.7-    031120 704  0.4-  1.9+  

030805 557  0.4-  0.2+    030901 561  0.9+  0.4-    031127 213  0.8+  1.5-  

030805 557  0.7-  0.1+    030901 561 (2.7-  0.7+)   031127 213  1.0+  1.7-  

030805 026  0.2-  0.0     030903 360  0.1-  0.0     031127 213  0.7-  0.6-  

030805 026  0.4+  0.0     030903 360  0.0   0.1+    031213 J95  0.1-  0.2-  

030805 246  0.4+  0.0     030903 360  0.2-  0.5-    031213 J95  0.1+  0.5+  

030805 246  0.2+  0.1-    030903 215  0.6+  0.1-    031214 J95  0.3+  0.1-  

030805 246  0.1-  0.1-    030905 785 (1.3+  3.0+)   031215 J95  0.0   0.5+  

030805 246  0.6-  0.1-    030905 785  0.5-  1.3+                            



NAKANO

         **** Don't distribute anyone except personal use only ****

                (C) Copyright 2004 OAA/ComputingSection

write mail from CFAD0::NAKANO on 2004-01-21 21:27:50(JST).

 

  P/2003 O3 (LINEAR)                                                    

Epoch 2003 Aug. 29.0 TT = JDT 2452880.5  

T 2003 Aug. 14.06411 TT                                 Nakano

q   1.2463786            (2000.0)            P               Q

n   0.18017605     Peri.    0.76334     +0.95242571     +0.30125551

a   3.1045930      Node   341.50074     -0.28038702     +0.80676147

e   0.5985372      Incl.    8.36442     -0.11945035     +0.50831196

P   5.47 (+/- 0.03 day)

From 246 observations 2003 July 30-Nov. 16, mean residual 0".63.



NAKANO

         **** Don't distribute anyone except personal use only ****

                (C) Copyright 2003 OAA/ComputingSection

write mail from CFAD0::NAKANO on 2003-11-20 02:00:59(JST).

 



   P/2003 O3 (LINEAR)                                                    

Epoch 2003 Aug. 29.0 TT = JDT 2452880.5  

T 2003 Aug. 14.06390 TT                                 Nakano

q   1.2463963            (2000.0)            P               Q

n   0.18012482     Peri.    0.76321     +0.95243004     +0.30124182

a   3.1051817      Node   341.50168     -0.28037451     +0.80676168

e   0.5986076      Incl.    8.36483     -0.11944519     +0.50831974

P   5.47 (+/- 0.07 day)

From 228 observations 2003 July 30-Oct. 18, mean residual 0".63.



NAKANO

         **** Don't distribute anyone except personal use only ****

                (C) Copyright 2003 OAA/ComputingSection

write mail from CFAD0::NAKANO on 2003-10-19 02:58:01(JST).

 

